Home   Weather   Taiohae   Past weeks

Flag for French Polynesia Past Weather in Taiohae, Marquesas Islands, French Polynesia — Yesterday and Last 2 Weeks

Now
82 °F

Passing clouds.


Feels Like: 85 °F
Forecast: 78 / 83 °F
Wind: 8 mph from East

Location: Atuona

Current Time: Sep 29, 2016 at 5:54:46 PM

Latest Report: Sep 29, 2016 at 4:30 PM


Visibility: 31 mi

Pressure: 29.90 "Hg

Humidity: 66%

Dew Point: 69 °F

Location of TaiohaeLocation

Past Weather in Taiohae — Graph

°F

Taiohae Temperature Yesterday

Maximum temperature yesterday: 86 °F (at 8:30 AM)
Minimum temperature yesterday: 74 °F (at 5:30 AM)
Average temperature yesterday: 81 °F

High & Low Weather Summary for the Past Weeks

 TemperatureHumidityPressure
High88 °F (Sep 21, 9:30 AM)91% (Sep 17, 11:30 PM)30.01 "Hg (Sep 17, 11:30 PM)
Low72 °F (Sep 23, 3:30 AM)54% (Sep 27, 10:30 AM)29.80 "Hg (Sep 17, 2:30 PM)
Average79 °F72%29.91 "Hg
* Reported Sep 14 4:30 PM — Sep 29 4:30 PM, Taiohae, Weather by CustomWeather, © 2016

Note: Actual official high and low records may vary slightly from our data, if they occured in-between our weather recording intervals... More about our weather records

Advertising

Taiohae Weather History for the Previous 24 Hours

Scroll right to see more
 ConditionsComfort  
Time TempWeatherWind HumidityBarometerVisibility
4:30 PM
Thu, Sep 29
82 °FPassing clouds.8 mph66%29.90 "Hg31 mi
3:30 PM83 °FPassing clouds.14 mph65%29.90 "Hg31 mi
2:30 PM84 °FPassing clouds.17 mph63%29.90 "Hg31 mi
1:30 PM84 °FPassing clouds.16 mph62%29.90 "Hg31 mi
12:30 PM84 °FWarm.18 mph62%29.93 "HgN/A
11:30 AM85 °FPassing clouds.17 mph59%29.95 "Hg31 mi
10:30 AM85 °FPassing clouds.16 mph60%29.98 "Hg31 mi
9:30 AM84 °FPassing clouds.21 mph57%29.99 "Hg31 mi
8:30 AM86 °FPassing clouds.13 mph56%29.99 "Hg31 mi
7:30 AM82 °FPassing clouds.2 mph65%29.98 "Hg31 mi
6:30 AM77 °FPassing clouds.3 mph73%29.97 "Hg25 mi
5:30 AM74 °FScattered clouds.3 mph81%29.94 "Hg19 mi
4:30 AM74 °FMild.3 mph80%29.91 "HgN/A
3:30 AM74 °FMild.3 mph81%29.90 "HgN/A
2:30 AM77 °FWarm.2 mph73%29.89 "HgN/A
1:30 AM78 °FWarm.5 mph73%29.89 "HgN/A
12:30 AM78 °FWarm.7 mph72%29.91 "HgN/A
11:30 PM
Wed, Sep 28
79 °FWarm.3 mph72%29.93 "HgN/A
10:30 PM78 °FWarm.5 mph73%29.93 "HgN/A
9:30 PM79 °FWarm.3 mph70%29.93 "HgN/A
8:30 PM79 °FWarm.7 mph72%29.92 "HgN/A
7:30 PM78 °FWarm.6 mph73%29.90 "HgN/A
6:30 PM80 °FWarm.6 mph69%29.87 "HgN/A
5:30 PM81 °FWarm.9 mph70%29.85 "HgN/A
Weather by CustomWeather, © 2016

See weather overviewHow to use our weather pages